カタログに戻る

BREEZE-M DEB

LostHEO
NORAD 32041·DEBRIS·🇷🇺 Russia

打ち上げ Feb 28, 2006 から Baikonur Cosmodrome

Loading…

次のパス (今後24時間)

TLE

古いSource: Space-Track

元期: Jul 4, 2026, 13:12 UTC

1 32041U 06006U   26185.55045675  .00069779  00000-0  10555-1 0  9996
2 32041  51.6975 255.4961 3772388 182.4702 175.0696  7.75629772439247

AllMySatでBREEZE-M DEBをリアルタイム追跡

Download on the App Store